Stations météo

Publicité
Bournemouth Airport, Grande-Bretagne (3862): Température de l'air & dewpoint: 17.07.2018 18:00:00 - 23.07.2018 18:00:00 (BST)Bournemouth Airport, Grande-Bretagne (3862): Température de l'air -20cm & Température de l'air -100cm: 17.07.2018 18:00:00 - 23.07.2018 18:00:00 (BST)Bournemouth Airport, Grande-Bretagne (3862): Vitesse du vent: 17.07.2018 18:00:00 - 23.07.2018 18:00:00 (BST)Bournemouth Airport, Grande-Bretagne (3862): Direction du vent: 17.07.2018 18:00:00 - 23.07.2018 18:00:00 (BST)Bournemouth Airport, Grande-Bretagne (3862): reduced air pressure: 17.07.2018 18:00:00 - 23.07.2018 18:00:00 (BST)Bournemouth Airport, Grande-Bretagne (3862): visibility: 17.07.2018 18:00:00 - 23.07.2018 18:00:00 (BST)Bournemouth Airport, Grande-Bretagne (3862): Ensoleillement: 17.07.2018 18:00:00 - 23.07.2018 18:00:00 (BST)Bournemouth Airport, Grande-Bretagne (3862): Quantités de précipitations: 17.07.2018 18:00:00 - 23.07.2018 18:00:00 (BST)
Date & Time tt [°C] td [°C] tt -20cm [°C] tt -100cm [°C] ff [km/h] ff [knt] dd ppp [hPa] vv [km] sd [min] rr [mm]
23.07.2018 18:00:00 25,0 16,0 - - 18 10 WSW - 10 - 0,0
23.07.2018 17:00:00 26,1 16,8 - - 16 9 WSW 1016,2 10 60 0,0
23.07.2018 16:00:00 25,2 15,7 - - 16 9 SW 1016,6 10 60 0,0
23.07.2018 15:00:00 24,5 15,9 - - 16 9 S 1016,8 10 60 0,0
23.07.2018 14:00:00 25,6 15,8 - - 18 10 S 1016,9 10 60 0,0
23.07.2018 13:00:00 26,0 15,4 - - 16 9 SW 1017,0 10 60 0,0
23.07.2018 12:00:00 26,4 14,7 - - 21 11 WSW 1017,1 10 60 0,0
23.07.2018 11:00:00 25,1 16,7 - - 13 7 S 1017,2 10 60 0,0
23.07.2018 10:00:00 23,6 16,0 21,5 18,4 11 6 S 1017,5 10 60 0,0
23.07.2018 09:00:00 21,1 17,2 - - 4 2 - 1017,7 10 54 0,0
23.07.2018 08:00:00 17,9 17,4 - - 8 4 W 1017,7 5 0 0,0
23.07.2018 07:00:00 17,0 16,8 - - 9 5 W 1017,7 5 0 0,0
23.07.2018 06:00:00 16,0 15,7 - - 8 4 W 1017,4 4,4 0 0,0
23.07.2018 05:00:00 16,1 15,5 - - 4 2 WSW 1017,3 17 0 0,0
23.07.2018 04:00:00 15,6 14,6 - - 5 3 W 1017,3 24 0 0,0
23.07.2018 03:00:00 15,8 13,6 - - 8 4 W 1017,4 27 0 0,0
23.07.2018 02:00:00 16,7 14,3 - - 5 3 W 1017,4 30 0 0,0
23.07.2018 01:00:00 18,0 14,4 - - 4 2 N 1017,4 30 - 0,0
23.07.2018 00:00:00 19,2 14,8 - - 8 4 NW 1017,2 21 0 0,0
22.07.2018 23:00:00 20,5 14,8 - - 9 5 WNW 1017,2 10 0 0,0
22.07.2018 22:00:00 20,5 14,0 - - 15 8 W 1016,9 10 0 0,0
22.07.2018 21:00:00 22,2 13,7 - - 13 7 W 1016,3 10 54 0,0
22.07.2018 20:00:00 23,8 14,6 - - 18 10 WSW 1016,0 10 54 0,0
22.07.2018 19:00:00 24,5 13,6 - - 21 11 WSW 1015,8 10 42 0,0
22.07.2018 18:00:00 26,0 13,0 - - 22 12 WSW 1015,9 10 60 0,0
22.07.2018 17:00:00 26,7 9,2 - - 21 11 SW 1015,8 10 60 0,0
22.07.2018 16:00:00 27,8 8,5 - - 21 11 WSW 1016,0 10 60 0,0
22.07.2018 15:00:00 26,7 9,3 - - 22 12 S 1016,0 10 60 0,0
22.07.2018 14:00:00 27,5 11,8 - - 16 9 SW 1016,1 10 60 0,0
22.07.2018 13:00:00 25,4 14,1 - - 16 9 S 1016,5 10 42 0,0
22.07.2018 12:00:00 25,1 12,7 - - 9 5 WSW 1016,5 10 36 0,0
22.07.2018 11:00:00 24,2 13,2 - - 5 3 - 1016,6 10 60 0,0
22.07.2018 10:00:00 22,7 13,2 21,2 18,4 9 5 W 1016,7 10 60 0,0
22.07.2018 09:00:00 20,6 15,0 - - 8 4 W 1016,7 10 60 0,0
22.07.2018 08:00:00 18,9 14,5 - - 11 6 WNW 1016,7 10 24 0,0
22.07.2018 07:00:00 15,1 14,4 - - 4 2 W 1016,5 10 6 0,0
22.07.2018 06:00:00 13,4 12,1 - - 2 1 NW 1016,2 17 0 0,0
22.07.2018 05:00:00 12,9 11,6 - - 2 1 N 1015,9 14 0 0,0
22.07.2018 04:00:00 13,5 12,4 - - 2 1 W 1015,9 19 0 0,0
22.07.2018 03:00:00 14,1 12,7 - - 4 2 NW 1015,9 21 0 0,0
22.07.2018 02:00:00 14,7 13,4 - - 0 0 N 1016,2 20 0 0,0
22.07.2018 01:00:00 15,9 13,9 - - 2 1 WNW 1016,2 17 - 0,0
22.07.2018 00:00:00 16,7 14,1 - - 8 4 W 1016,1 10 0 0,0
21.07.2018 23:00:00 17,6 14,1 - - 9 5 W 1016,0 10 0 0,0
21.07.2018 22:00:00 18,3 13,6 - - 9 5 W 1016,1 10 0 0,0
21.07.2018 21:00:00 20,5 13,4 - - 11 6 W 1015,4 10 6 0,0
21.07.2018 20:00:00 21,8 11,7 - - 13 7 WSW 1015,1 10 6 0,0
21.07.2018 19:00:00 21,9 13,1 - - 13 7 WSW 1015,0 10 0 0,0
21.07.2018 18:00:00 22,7 12,5 - - 13 7 S 1015,1 10 18 0,0
21.07.2018 17:00:00 23,3 13,1 - - 15 8 S 1015,0 10 0 0,0
21.07.2018 16:00:00 23,7 12,7 - - 15 8 S 1014,8 10 12 0,0
21.07.2018 15:00:00 23,9 12,7 - - 16 9 S 1014,7 10 42 0,0
21.07.2018 14:00:00 23,6 12,9 - - 16 9 S 1014,4 10 48 0,0
21.07.2018 13:00:00 24,4 13,4 - - 13 7 S 1014,5 10 60 0,0
21.07.2018 12:00:00 22,6 13,9 - - 4 2 - 1014,5 10 54 0,0
21.07.2018 11:00:00 21,5 13,6 - - 5 3 SE 1014,5 19 60 0,0
21.07.2018 10:00:00 20,6 14,2 21,0 18,4 8 4 - 1014,2 10 60 0,0
21.07.2018 09:00:00 16,9 16,8 - - 4 2 - 1014,0 7 48 0,2
21.07.2018 08:00:00 13,8 13,7 - - 2 1 WNW 1014,1 6 0 0,0
21.07.2018 07:00:00 13,3 13,1 - - 5 3 NNW 1013,5 4,0 0 0,0
21.07.2018 06:00:00 12,9 12,5 - - 2 1 SSW 1013,2 0,1 0 0,0
21.07.2018 05:00:00 13,7 13,3 - - 4 2 WNW 1013,0 0,1 0 0,0
21.07.2018 04:00:00 15,0 14,6 - - 2 1 N 1013,0 8 0 0,0
21.07.2018 03:00:00 15,0 14,4 - - 4 2 N 1013,2 9 0 0,0
21.07.2018 02:00:00 15,0 14,3 - - 5 3 W 1013,2 11 0 0,4
21.07.2018 01:00:00 15,3 13,7 - - 5 3 NW 1013,5 9 - 0,4
21.07.2018 00:00:00 15,7 13,6 - - 8 4 WNW 1013,7 10 0 0,2
20.07.2018 23:00:00 17,4 12,6 - - 13 7 NW 1013,5 10 0 0,0
20.07.2018 22:00:00 18,0 15,7 - - 2 1 W 1013,4 10 0 0,0
20.07.2018 21:00:00 18,8 15,8 - - 8 4 SSE 1013,2 10 0 0,0
20.07.2018 20:00:00 19,5 15,6 - - 13 7 SE 1013,0 10 0 0,0
20.07.2018 19:00:00 20,0 15,3 - - 18 10 SE 1012,9 10 6 0,0
20.07.2018 18:00:00 20,9 16,0 - - 21 11 SSE 1013,2 10 42 0,0
20.07.2018 17:00:00 21,4 16,2 - - 21 11 SSE 1013,2 10 30 0,0
20.07.2018 16:00:00 22,0 15,7 - - 18 10 SE 1013,3 10 6 0,0
20.07.2018 15:00:00 23,4 16,0 - - 21 11 SSE 1013,4 10 24 0,0
20.07.2018 14:00:00 23,8 15,9 - - 8 4 NNE 1013,4 10 6 0,0
20.07.2018 13:00:00 25,9 15,5 - - 11 6 NE 1013,7 10 12 0,0
20.07.2018 12:00:00 23,2 13,0 - - 15 8 NNW 1014,2 10 36 0,0
20.07.2018 11:00:00 22,0 12,5 - - 13 7 N 1014,5 10 18 0,0
20.07.2018 10:00:00 20,7 12,3 21,0 18,4 13 7 N 1014,8 10 18 0,0
20.07.2018 09:00:00 18,4 12,6 - - 9 5 N 1014,8 10 0 0,0
20.07.2018 08:00:00 17,0 13,0 - - 5 3 NNW 1014,7 10 0 0,0
20.07.2018 07:00:00 15,2 12,7 - - 5 3 - 1014,9 10 0 0,0
20.07.2018 06:00:00 14,2 12,0 - - 4 2 N 1014,9 10 0 0,0
20.07.2018 05:00:00 14,4 12,3 - - 9 5 NW 1015,0 17 0 0,0
20.07.2018 04:00:00 14,0 12,2 - - 8 4 NNW 1015,7 23 0 0,0
20.07.2018 03:00:00 13,5 11,5 - - 4 2 WNW 1016,0 22 0 0,0
20.07.2018 02:00:00 14,8 11,6 - - 2 1 W 1016,4 21 0 0,0
20.07.2018 01:00:00 16,0 11,8 - - 4 2 WSW 1016,8 23 - 0,0
20.07.2018 00:00:00 17,6 12,1 - - 8 4 NW 1017,0 23 0 0,0
19.07.2018 23:00:00 18,9 12,6 - - 11 6 NW 1016,7 10 0 0,0
19.07.2018 22:00:00 19,6 10,9 - - 9 5 W 1016,7 10 0 0,0
19.07.2018 21:00:00 23,1 10,9 - - 5 3 S 1016,7 10 0 0,0
19.07.2018 20:00:00 23,2 10,8 - - 8 4 SSW 1016,7 10 12 0,0
19.07.2018 19:00:00 23,5 11,9 - - 8 4 SSW 1016,7 10 24 0,0
19.07.2018 18:00:00 23,7 12,0 - - 9 5 S 1016,9 10 12 0,0
19.07.2018 17:00:00 23,1 12,2 - - 15 8 S 1017,3 10 0 0,0
19.07.2018 16:00:00 23,7 13,5 - - 15 8 S 1017,5 10 18 0,0
19.07.2018 15:00:00 26,4 11,2 - - 15 8 S 1017,4 10 42 0,0
19.07.2018 14:00:00 26,2 12,4 - - 15 8 SSE 1017,7 10 48 0,0
19.07.2018 13:00:00 25,0 12,2 - - 5 3 - 1018,2 10 30 0,0
19.07.2018 12:00:00 24,3 12,0 - - 5 3 - 1018,4 10 36 0,0
19.07.2018 11:00:00 22,7 11,9 - - 9 5 NNW 1018,7 10 18 0,0
19.07.2018 10:00:00 22,0 12,3 20,9 18,5 5 3 - 1019,0 10 36 0,0
19.07.2018 09:00:00 18,2 12,2 - - 4 2 - 1019,3 10 30 0,0
19.07.2018 08:00:00 15,5 11,5 - - 8 4 N 1019,3 10 54 0,0
19.07.2018 07:00:00 12,1 11,0 - - 4 2 NNE 1019,4 10 0 0,0
19.07.2018 06:00:00 10,3 9,0 - - 5 3 N 1019,4 10 0 0,0
19.07.2018 05:00:00 10,1 9,0 - - 4 2 NNW 1019,3 18 0 0,0
19.07.2018 04:00:00 10,3 8,9 - - 5 3 N 1019,3 18 0 0,0
19.07.2018 03:00:00 10,3 8,3 - - 5 3 N 1019,4 24 0 0,0
19.07.2018 02:00:00 11,2 9,0 - - 2 1 N 1019,6 15 0 0,0
19.07.2018 01:00:00 11,7 8,6 - - 2 1 NW 1019,6 28 - 0,0
19.07.2018 00:00:00 12,5 9,3 - - 4 2 N 1019,2 10 0 0,0
18.07.2018 23:00:00 14,4 9,6 - - 2 1 W 1019,1 10 0 0,0
18.07.2018 22:00:00 17,2 9,8 - - 8 4 NW 1018,9 10 0 0,0
18.07.2018 21:00:00 19,0 9,9 - - 9 5 W 1018,7 10 0 0,0
18.07.2018 20:00:00 21,4 9,8 - - 13 7 W 1018,6 10 30 0,0
18.07.2018 19:00:00 22,2 10,3 - - 11 6 - 1018,4 10 54 0,0
18.07.2018 18:00:00 23,2 10,3 - - 11 6 - 1018,5 10 54 0,0
18.07.2018 17:00:00 23,4 11,2 - - 13 7 WSW 1018,5 10 24 0,0
18.07.2018 16:00:00 21,5 12,0 - - 16 9 SSW 1018,7 10 30 0,0
18.07.2018 15:00:00 21,5 12,1 - - 16 9 S 1018,8 10 0 0,0
18.07.2018 14:00:00 20,7 12,9 - - 16 9 S 1018,7 10 0 0,0
18.07.2018 13:00:00 20,0 12,7 - - 16 9 S 1018,8 10 0 0,0
18.07.2018 12:00:00 21,2 12,9 - - 13 7 SSW 1018,7 10 6 0,0
18.07.2018 11:00:00 20,9 14,1 - - 15 8 SSW 1018,9 10 36 0,0
18.07.2018 10:00:00 19,6 13,8 21,7 18,4 9 5 SW 1018,9 10 30 0,0
18.07.2018 09:00:00 18,9 14,3 - - 8 4 SSW 1018,9 10 54 0,0
18.07.2018 08:00:00 14,2 14,0 - - 4 2 NNE 1018,8 10 24 0,0
18.07.2018 07:00:00 11,9 11,7 - - 2 1 - 1018,4 1,0 0 0,0
18.07.2018 06:00:00 9,8 9,4 - - 4 2 N 1018,2 0,2 0 0,0
18.07.2018 05:00:00 9,8 8,8 - - 4 2 NE 1018,0 12 0 0,0
18.07.2018 04:00:00 10,5 9,6 - - 5 3 ENE 1017,9 16 0 0,0
18.07.2018 03:00:00 11,5 10,5 - - 5 3 NE 1018,1 18 0 0,0
18.07.2018 02:00:00 12,9 11,6 - - 0 0 N 1018,1 19 0 0,0
18.07.2018 01:00:00 13,9 12,6 - - 8 4 N 1018,1 12 - 0,0
18.07.2018 00:00:00 15,6 13,8 - - 8 4 WSW 1018,1 14 0 0,0
17.07.2018 23:00:00 15,9 13,9 - - 11 6 WSW 1018,1 10 0 0,0
17.07.2018 22:00:00 16,4 13,1 - - 15 8 WSW 1017,9 10 0 0,0
17.07.2018 21:00:00 17,3 12,9 - - 13 7 WSW 1017,6 10 0 0,0
17.07.2018 20:00:00 18,6 12,0 - - 16 9 WSW 1017,4 10 54 0,0
17.07.2018 19:00:00 19,9 12,2 - - 21 11 WSW 1017,2 10 54 0,0
17.07.2018 18:00:00 21,0 12,3 - - 18 10 WSW 1017,2 10 30 0,0

tt = Température de l'air
td = dewpoint
tt -20cm = Température de l'air -20cm
tt -100cm = Température de l'air -100cm
ff = Vitesse du vent
dd = Direction du vent
ppp = reduced air pressure
vv = visibility
sd = Ensoleillement
rr = Quantités de précipitations

stations d'obs. à proximité